,

(GMT )
Teruel

Tiempo Historia de LETL - Noviembre, 2018

Change the Weather History Date:

Viernes, Noviembre 9, 2018

  Actual Average (WUND) Record (WUND)
Temperature  
Temperatura media 42 ° F -  
Temperatura máxima 48 ° F - - (-1)
Temperatura mínima 37 ° F - - (-1)
Degree Days  
Grados día de calefacción 22    
Moisture  
Punto de rocío 35 ° F    
Average Humidity 76    
Maximum Humidity 93    
Minimum Humidity 54    
Precipitación  
Precipitación 0.00 pul - - ()
Presión al nivel del mar  
Presión al nivel del mar 30.02 pul    
Viento  
Velocidad del viento 8 mph ()    
Velocidad máxima del viento 22 mph    
Max Gust Speed -    
Visibilidad 6.1 Millas    
Eventos Lluvia    
Averages and records for this station are not official NWS values.
T = Trace of Precipitation, MM = Missing Value Source: Averaged Metar Reports

Daily Weather History Graph

Daily Weather History Graph

Search for Another Location

Airport or City:

Astronomía

Nov. 09, 2018 Salida Puesta
Hora real 7:43 AM CET 5:53 PM CET
Crepúsculo civil 7:14 AM CET 6:21 PM CET
Crepúsculo náutico 6:42 AM CET 6:54 PM CET
Crepúsculo astronómico 6:10 AM CET 7:26 PM CET
Luna 9:18 AM CET (11/9) 7:28 PM CET (11/9)
Horas de luz 11h 07m
Horas de luz
10h 09m
Creciente, 4% of the Moon is Illuminated
Nov 9
Creciente
Nov 15
Cuarto creciente
Nov 23
Luna llena
Nov 30
Cuarto menguante
Dic 7
Nueva

Hourly Weather History & Observations

Hora (CET) Temp. Vientos helados Punto de rocío Humedad Presión Visibilidad Wind Dir Velocidad del viento Velocidad de ráfagas Precip Eventos Condiciones
12:30 AM 44.6 ° F - 42.8 ° F 93% 29.95 pul 6.2 mi Variable 1.2 mph - N/A   Muy nublado
1:30 AM 44.6 ° F - 41.0 ° F 87% 29.95 pul 6.2 mi Sin viento Sin viento - N/A   Parcialmente nublado
3:30 AM 42.8 ° F 37.5 ° F 37.4 ° F 81% 29.95 pul 5.6 mi ONO 9.2 mph - N/A   Desconocido
4:00 AM 42.8 ° F 38.0 ° F 37.4 ° F 81% 29.95 pul 5.0 mi Oeste 8.1 mph - N/A   Muy nublado
6:00 AM 39.2 ° F 33.0 ° F 35.6 ° F 87% 29.98 pul 6.2 mi Norte 9.2 mph - N/A   Nubes dispersas
6:30 AM 39.2 ° F 33.0 ° F 35.6 ° F 87% 29.98 pul 6.2 mi Norte 9.2 mph - N/A   Muy nublado
7:00 AM 39.2 ° F 29.8 ° F 35.6 ° F 87% 29.98 pul 6.2 mi Norte 18.4 mph - N/A   Nublado
7:30 AM 39.2 ° F 31.6 ° F 33.8 ° F 81% 30.01 pul 6.2 mi NNO 12.7 mph - N/A   Muy nublado
8:00 AM 37.4 ° F 29.3 ° F 32.0 ° F 81% 30.01 pul 6.2 mi NNO 12.7 mph - N/A   Nubes dispersas
9:00 AM 39.2 ° F 33.0 ° F 33.8 ° F 81% 30.04 pul 6.2 mi NNO 9.2 mph - N/A   Nublado
9:30 AM 39.2 ° F 32.0 ° F 33.8 ° F 81% 30.04 pul 6.2 mi NNO 11.5 mph - N/A   Desconocido
11:00 AM 42.8 ° F 35.1 ° F 33.8 ° F 70% 30.04 pul 6.2 mi NNO 16.1 mph - N/A   Nublado
12:30 PM 46.4 ° F 38.5 ° F 33.8 ° F 62% 30.04 pul 6.2 mi ONO 21.9 mph - N/A   Nublado
1:00 PM 46.4 ° F 39.2 ° F 33.8 ° F 62% 30.04 pul 6.2 mi ONO 18.4 mph - N/A   Muy nublado
1:30 PM 46.4 ° F 39.0 ° F 33.8 ° F 62% 30.04 pul 6.2 mi NO 19.6 mph - N/A   Parcialmente nublado
3:00 PM 48.2 ° F - 33.8 ° F 58% 30.04 pul 6.2 mi NO 18.4 mph - N/A   Parcialmente nublado
3:30 PM 48.2 ° F - 33.8 ° F 58% 30.01 pul 6.2 mi NO 15.0 mph - N/A   Parcialmente nublado
4:30 PM 48.2 ° F - 32.0 ° F 54% 30.04 pul 6.2 mi NO 15.0 mph - N/A Lluvia Lluvias fuertes
5:00 PM 46.4 ° F 40.7 ° F 33.8 ° F 62% 30.04 pul 6.2 mi NO 12.7 mph - N/A   Desconocido
5:30 PM 46.4 ° F 44.3 ° F 33.8 ° F 62% 30.04 pul 6.2 mi NNO 4.6 mph - N/A   Parcialmente nublado
6:30 PM 41.0 ° F 38.0 ° F 35.6 ° F 81% 30.06 pul 6.2 mi Oeste 4.6 mph - N/A   Desconocido
8:30 PM 39.2 ° F - 33.8 ° F 81% 30.06 pul 6.2 mi Variable 1.2 mph - N/A   Parcialmente nublado
10:30 PM 39.2 ° F 37.0 ° F 37.4 ° F 93% 30.09 pul 6.2 mi SSE 3.5 mph - N/A   Parcialmente nublado
11:00 PM 39.2 ° F - 37.4 ° F 93% 30.09 pul - SSE 2.3 mph - N/A   Despejado
11:30 PM 41.0 ° F - 35.6 ° F 81% 30.09 pul 6.2 mi ESE 2.3 mph - N/A   Muy nublado